Data supplied by UK-AIR on 6/6/2017
All Data GMT hour ending 
Status: R =Ratified P=Provisional,P*=As supplied
,,Sibton,,,,,,,,,,,,,,,,,,,,,,,
Date,time,"Ozone",status,unit
 
01-01-2016,01:00,55.56694,R,ugm-3
01-01-2016,02:00,53.98369,R,ugm-3
01-01-2016,03:00,49.34119,R,ugm-3
01-01-2016,04:00,45.18464,R,ugm-3
01-01-2016,05:00,43.99620,R,ugm-3
01-01-2016,06:00,44.21274,R,ugm-3
01-01-2016,07:00,43.45687,R,ugm-3
01-01-2016,08:00,38.65272,R,ugm-3
01-01-2016,09:00,39.13817,R,ugm-3
01-01-2016,10:00,38.59834,R,ugm-3
01-01-2016,11:00,40.81207,R,ugm-3
01-01-2016,12:00,58.46453,R,ugm-3
01-01-2016,13:00,65.26638,R,ugm-3
01-01-2016,14:00,66.72374,R,ugm-3
01-01-2016,15:00,64.51001,R,ugm-3
01-01-2016,16:00,66.07613,R,ugm-3
01-01-2016,17:00,58.78833,R,ugm-3
01-01-2016,18:00,59.86751,R,ugm-3
01-01-2016,19:00,54.57741,R,ugm-3
01-01-2016,20:00,49.01739,R,ugm-3
01-01-2016,21:00,49.88053,R,ugm-3
01-01-2016,22:00,47.18184,R,ugm-3
01-01-2016,23:00,52.36368,R,ugm-3
01-01-2016,24:00,53.65988,R,ugm-3
02-01-2016,01:00,54.19922,R,ugm-3
02-01-2016,02:00,54.27173,R,ugm-3
02-01-2016,03:00,54.30749,R,ugm-3
02-01-2016,04:00,54.52352,R,ugm-3
02-01-2016,05:00,51.01458,R,ugm-3
02-01-2016,06:00,48.04548,R,ugm-3
02-01-2016,07:00,43.83455,R,ugm-3
02-01-2016,08:00,43.07868,R,ugm-3
02-01-2016,09:00,42.10727,R,ugm-3
02-01-2016,10:00,39.51636,R,ugm-3
02-01-2016,11:00,46.37209,R,ugm-3
02-01-2016,12:00,47.99160,R,ugm-3
02-01-2016,13:00,50.31309,R,ugm-3
02-01-2016,14:00,52.41806,R,ugm-3
02-01-2016,15:00,57.06056,R,ugm-3
02-01-2016,16:00,56.35907,R,ugm-3
02-01-2016,17:00,60.13743,R,ugm-3
02-01-2016,18:00,65.37414,R,ugm-3
02-01-2016,19:00,62.67496,R,ugm-3
02-01-2016,20:00,60.56950,R,ugm-3
02-01-2016,21:00,57.43874,R,ugm-3
02-01-2016,22:00,53.44435,R,ugm-3
02-01-2016,23:00,47.07407,R,ugm-3
02-01-2016,24:00,35.08940,R,ugm-3
03-01-2016,01:00,28.67355,R,ugm-3
03-01-2016,02:00,42.72262,R,ugm-3
03-01-2016,03:00,46.95533,R,ugm-3
03-01-2016,04:00,46.46888,R,ugm-3
03-01-2016,05:00,38.03954,R,ugm-3
03-01-2016,06:00,55.70847,R,ugm-3
03-01-2016,07:00,61.43613,R,ugm-3
03-01-2016,08:00,61.16621,R,ugm-3
03-01-2016,09:00,62.73283,R,ugm-3
03-01-2016,10:00,63.21929,R,ugm-3
03-01-2016,11:00,69.97373,R,ugm-3
03-01-2016,12:00,69.70381,R,ugm-3
03-01-2016,13:00,67.97404,R,ugm-3
03-01-2016,14:00,69.21736,R,ugm-3
03-01-2016,15:00,66.89387,R,ugm-3
03-01-2016,16:00,64.35384,R,ugm-3
03-01-2016,17:00,64.89468,R,ugm-3
03-01-2016,18:00,65.16459,R,ugm-3
03-01-2016,19:00,63.86739,R,ugm-3
03-01-2016,20:00,61.22009,R,ugm-3
03-01-2016,21:00,55.92500,R,ugm-3
03-01-2016,22:00,55.65508,R,ugm-3
03-01-2016,23:00,55.43855,R,ugm-3
03-01-2016,24:00,53.70978,R,ugm-3
04-01-2016,01:00,48.34251,R,ugm-3
04-01-2016,02:00,42.93882,R,ugm-3
04-01-2016,03:00,37.98516,R,ugm-3
04-01-2016,04:00,42.79429,R,ugm-3
04-01-2016,05:00,42.14619,R,ugm-3
04-01-2016,06:00,47.06360,R,ugm-3
04-01-2016,07:00,51.16925,R,ugm-3
04-01-2016,08:00,43.11909,R,ugm-3
04-01-2016,09:00,49.06329,R,ugm-3
04-01-2016,10:00,50.35949,R,ugm-3
04-01-2016,11:00,53.33109,R,ugm-3
04-01-2016,12:00,61.05844,R,ugm-3
04-01-2016,13:00,65.92097,R,ugm-3
04-01-2016,14:00,66.40742,R,ugm-3
04-01-2016,15:00,64.02954,R,ugm-3
04-01-2016,16:00,58.62668,R,ugm-3
04-01-2016,17:00,55.97889,R,ugm-3
04-01-2016,18:00,52.73687,R,ugm-3
04-01-2016,19:00,50.46776,R,ugm-3
04-01-2016,20:00,46.63053,R,ugm-3
04-01-2016,21:00,45.27994,R,ugm-3
04-01-2016,22:00,46.19846,R,ugm-3
04-01-2016,23:00,50.03519,R,ugm-3
04-01-2016,24:00,55.38417,R,ugm-3
05-01-2016,01:00,56.69917,R,ugm-3
05-01-2016,02:00,62.46275,R,ugm-3
05-01-2016,03:00,63.43532,R,ugm-3
05-01-2016,04:00,64.67814,R,ugm-3
05-01-2016,05:00,63.32705,R,ugm-3
05-01-2016,06:00,61.27448,R,ugm-3
05-01-2016,07:00,60.40934,R,ugm-3
05-01-2016,08:00,58.84222,R,ugm-3
05-01-2016,09:00,59.92339,R,ugm-3
05-01-2016,10:00,56.57361,R,ugm-3
05-01-2016,11:00,55.70847,R,ugm-3
05-01-2016,12:00,54.19623,R,ugm-3
05-01-2016,13:00,53.49324,R,ugm-3
05-01-2016,14:00,57.81593,R,ugm-3
05-01-2016,15:00,60.40934,R,ugm-3
05-01-2016,16:00,59.70685,R,ugm-3
05-01-2016,17:00,51.65620,R,ugm-3
05-01-2016,18:00,47.81997,R,ugm-3
05-01-2016,19:00,47.49517,R,ugm-3
05-01-2016,20:00,50.89983,R,ugm-3
05-01-2016,21:00,58.73445,R,ugm-3
05-01-2016,22:00,56.30319,R,ugm-3
05-01-2016,23:00,52.52084,R,ugm-3
05-01-2016,24:00,55.97889,R,ugm-3
06-01-2016,01:00,56.55481,R,ugm-3
06-01-2016,02:00,54.30350,R,ugm-3
06-01-2016,03:00,49.38709,R,ugm-3
06-01-2016,04:00,35.44613,R,ugm-3
06-01-2016,05:00,28.58341,R,ugm-3
06-01-2016,06:00,31.98808,R,ugm-3
06-01-2016,07:00,27.71928,R,ugm-3
06-01-2016,08:00,16.69603,R,ugm-3
06-01-2016,09:00,22.96402,R,ugm-3
06-01-2016,10:00,14.64295,R,ugm-3
06-01-2016,11:00,12.42772,R,ugm-3
06-01-2016,12:00,14.64295,R,ugm-3
06-01-2016,13:00,39.01194,R,ugm-3
06-01-2016,14:00,54.41226,R,ugm-3
06-01-2016,15:00,44.79349,R,ugm-3
06-01-2016,16:00,28.36738,R,ugm-3
06-01-2016,17:00,26.20654,R,ugm-3
06-01-2016,18:00,28.20523,R,ugm-3
06-01-2016,19:00,11.72524,R,ugm-3
06-01-2016,20:00,19.88416,R,ugm-3
06-01-2016,21:00,19.07340,R,ugm-3
06-01-2016,22:00,18.53357,R,ugm-3
06-01-2016,23:00,17.88546,R,ugm-3
06-01-2016,24:00,17.72281,R,ugm-3
07-01-2016,01:00,17.57879,R,ugm-3
07-01-2016,02:00,30.25947,R,ugm-3
07-01-2016,03:00,42.14669,R,ugm-3
07-01-2016,04:00,40.47130,R,ugm-3
07-01-2016,05:00,48.68410,R,ugm-3
07-01-2016,06:00,47.54955,R,ugm-3
07-01-2016,07:00,49.17056,R,ugm-3
07-01-2016,08:00,48.73799,R,ugm-3
07-01-2016,09:00,56.30269,R,ugm-3
07-01-2016,10:00,63.54359,R,ugm-3
07-01-2016,11:00,64.67814,R,ugm-3
07-01-2016,12:00,60.40984,R,ugm-3
07-01-2016,13:00,54.14184,R,ugm-3
07-01-2016,14:00,53.16944,R,ugm-3
07-01-2016,15:00,66.46130,R,ugm-3
07-01-2016,16:00,73.64832,R,ugm-3
07-01-2016,17:00,70.13588,R,ugm-3
07-01-2016,18:00,63.54359,R,ugm-3
07-01-2016,19:00,64.40773,R,ugm-3
07-01-2016,20:00,63.81351,R,ugm-3
07-01-2016,21:00,63.75912,R,ugm-3
07-01-2016,22:00,64.62376,R,ugm-3
07-01-2016,23:00,64.84029,R,ugm-3
07-01-2016,24:00,64.19169,R,ugm-3
08-01-2016,01:00,62.24655,R,ugm-3
08-01-2016,02:00,62.31839,R,ugm-3
08-01-2016,03:00,59.32867,R,ugm-3
08-01-2016,04:00,51.06148,R,ugm-3
08-01-2016,05:00,47.00921,R,ugm-3
08-01-2016,06:00,45.71201,R,ugm-3
08-01-2016,07:00,45.76639,R,ugm-3
08-01-2016,08:00,41.11940,R,ugm-3
08-01-2016,09:00,32.14973,R,ugm-3
08-01-2016,10:00,38.03904,R,ugm-3
08-01-2016,11:00,46.63103,R,ugm-3
08-01-2016,12:00,56.35707,R,ugm-3
08-01-2016,13:00,60.03165,R,ugm-3
08-01-2016,14:00,59.54470,R,ugm-3
08-01-2016,15:00,59.43694,R,ugm-3
08-01-2016,16:00,60.67976,R,ugm-3
08-01-2016,17:00,56.41096,R,ugm-3
08-01-2016,18:00,51.65570,R,ugm-3
08-01-2016,19:00,44.03762,R,ugm-3
08-01-2016,20:00,47.44128,R,ugm-3
08-01-2016,21:00,49.06279,R,ugm-3
08-01-2016,22:00,47.87385,R,ugm-3
08-01-2016,23:00,45.27994,R,ugm-3
08-01-2016,24:00,47.81947,R,ugm-3
09-01-2016,01:00,48.02652,R,ugm-3
09-01-2016,02:00,52.49689,R,ugm-3
09-01-2016,03:00,58.13973,R,ugm-3
09-01-2016,04:00,62.24987,R,ugm-3
09-01-2016,05:00,62.84509,R,ugm-3
09-01-2016,06:00,59.60008,R,ugm-3
09-01-2016,07:00,56.08466,R,ugm-3
09-01-2016,08:00,57.59840,R,ugm-3
09-01-2016,09:00,57.76105,R,ugm-3
09-01-2016,10:00,59.49182,R,ugm-3
09-01-2016,11:00,61.87169,R,ugm-3
09-01-2016,12:00,62.57418,R,ugm-3
09-01-2016,13:00,64.14280,R,ugm-3
09-01-2016,14:00,62.30376,R,ugm-3
09-01-2016,15:00,60.89829,R,ugm-3
09-01-2016,16:00,61.92557,R,ugm-3
09-01-2016,17:00,62.46641,R,ugm-3
09-01-2016,18:00,67.71260,R,ugm-3
09-01-2016,19:00,67.92914,R,ugm-3
09-01-2016,20:00,67.71260,R,ugm-3
09-01-2016,21:00,67.11789,R,ugm-3
09-01-2016,22:00,68.95642,R,ugm-3
09-01-2016,23:00,71.55233,R,ugm-3
09-01-2016,24:00,77.77193,R,ugm-3
10-01-2016,01:00,82.63994,R,ugm-3
10-01-2016,02:00,80.76465,R,ugm-3
10-01-2016,03:00,79.17790,R,ugm-3
10-01-2016,04:00,77.93408,R,ugm-3
10-01-2016,05:00,76.20381,R,ugm-3
10-01-2016,06:00,75.33817,R,ugm-3
10-01-2016,07:00,73.33699,R,ugm-3
10-01-2016,08:00,72.30970,R,ugm-3
10-01-2016,09:00,74.25601,R,ugm-3
10-01-2016,10:00,71.28191,R,ugm-3
10-01-2016,11:00,67.17127,R,ugm-3
10-01-2016,12:00,65.17058,R,ugm-3
10-01-2016,13:00,63.38593,R,ugm-3
10-01-2016,14:00,65.11670,R,ugm-3
10-01-2016,15:00,64.19718,R,ugm-3
10-01-2016,16:00,62.95336,R,ugm-3
10-01-2016,17:00,62.68244,R,ugm-3
10-01-2016,18:00,60.41184,R,ugm-3
10-01-2016,19:00,65.65753,R,ugm-3
10-01-2016,20:00,66.84697,R,ugm-3
10-01-2016,21:00,66.19837,R,ugm-3
10-01-2016,22:00,65.44100,R,ugm-3
10-01-2016,23:00,62.08772,R,ugm-3
10-01-2016,24:00,60.89779,R,ugm-3
11-01-2016,01:00,57.40099,R,ugm-3
11-01-2016,02:00,63.89034,R,ugm-3
11-01-2016,03:00,68.14517,R,ugm-3
11-01-2016,04:00,56.94979,R,ugm-3
11-01-2016,05:00,58.13973,R,ugm-3
11-01-2016,06:00,62.41252,R,ugm-3
11-01-2016,07:00,64.84578,R,ugm-3
11-01-2016,08:00,67.87525,R,ugm-3
11-01-2016,09:00,80.25957,R,ugm-3
11-01-2016,10:00,73.66179,R,ugm-3
11-01-2016,11:00,69.60503,R,ugm-3
11-01-2016,12:00,67.38780,R,ugm-3
11-01-2016,13:00,62.84509,R,ugm-3
11-01-2016,14:00,57.81543,R,ugm-3
11-01-2016,15:00,60.89829,R,ugm-3
11-01-2016,16:00,55.54333,R,ugm-3
11-01-2016,17:00,60.95167,R,ugm-3
11-01-2016,18:00,49.59464,R,ugm-3
11-01-2016,19:00,48.56686,R,ugm-3
11-01-2016,20:00,51.00061,R,ugm-3
11-01-2016,21:00,50.08159,R,ugm-3
11-01-2016,22:00,34.23474,R,ugm-3
11-01-2016,23:00,28.17729,R,ugm-3
11-01-2016,24:00,27.09612,R,ugm-3
12-01-2016,01:00,31.00852,R,ugm-3
12-01-2016,02:00,34.50565,R,ugm-3
12-01-2016,03:00,39.58870,R,ugm-3
12-01-2016,04:00,43.59158,R,ugm-3
12-01-2016,05:00,47.21527,R,ugm-3
12-01-2016,06:00,47.43130,R,ugm-3
12-01-2016,07:00,47.21477,R,ugm-3
12-01-2016,08:00,48.72951,R,ugm-3
12-01-2016,09:00,47.59345,R,ugm-3
12-01-2016,10:00,49.10769,R,ugm-3
12-01-2016,11:00,53.43487,R,ugm-3
12-01-2016,12:00,54.35439,R,ugm-3
12-01-2016,13:00,51.81236,R,ugm-3
12-01-2016,14:00,49.43249,R,ugm-3
12-01-2016,15:00,51.43318,R,ugm-3
12-01-2016,16:00,42.45552,R,ugm-3
12-01-2016,17:00,43.42893,R,ugm-3
12-01-2016,18:00,43.32066,R,ugm-3
12-01-2016,19:00,45.48400,R,ugm-3
12-01-2016,20:00,44.67275,R,ugm-3
12-01-2016,21:00,42.02296,R,ugm-3
12-01-2016,22:00,41.10344,R,ugm-3
12-01-2016,23:00,39.80523,R,ugm-3
12-01-2016,24:00,37.26321,R,ugm-3
13-01-2016,01:00,36.41620,R,ugm-3
13-01-2016,02:00,38.57954,R,ugm-3
13-01-2016,03:00,33.91044,R,ugm-3
13-01-2016,04:00,40.77864,R,ugm-3
13-01-2016,05:00,47.59296,R,ugm-3
13-01-2016,06:00,45.26796,R,ugm-3
13-01-2016,07:00,48.18817,R,ugm-3
13-01-2016,08:00,55.65209,R,ugm-3
13-01-2016,09:00,52.94742,R,ugm-3
13-01-2016,10:00,52.94792,R,ugm-3
13-01-2016,11:00,53.11007,R,ugm-3
13-01-2016,12:00,53.05618,R,ugm-3
13-01-2016,13:00,51.32491,R,ugm-3
13-01-2016,14:00,55.21952,R,ugm-3
13-01-2016,15:00,55.81424,R,ugm-3
13-01-2016,16:00,51.54195,R,ugm-3
13-01-2016,17:00,45.80830,R,ugm-3
13-01-2016,18:00,35.58682,R,ugm-3
13-01-2016,19:00,23.52581,R,ugm-3
13-01-2016,20:00,26.12222,R,ugm-3
13-01-2016,21:00,45.97145,R,ugm-3
13-01-2016,22:00,54.73257,R,ugm-3
13-01-2016,23:00,60.03265,R,ugm-3
13-01-2016,24:00,64.46710,R,ugm-3
14-01-2016,01:00,66.84730,R,ugm-3
14-01-2016,02:00,66.19803,R,ugm-3
14-01-2016,03:00,64.41321,R,ugm-3
14-01-2016,04:00,62.62856,R,ugm-3
14-01-2016,05:00,62.52029,R,ugm-3
14-01-2016,06:00,65.54877,R,ugm-3
14-01-2016,07:00,63.11551,R,ugm-3
14-01-2016,08:00,59.97927,R,ugm-3
14-01-2016,09:00,57.86931,R,ugm-3
14-01-2016,10:00,56.57111,R,ugm-3
14-01-2016,11:00,53.81255,R,ugm-3
14-01-2016,12:00,53.59702,R,ugm-3
14-01-2016,13:00,46.13310,R,ugm-3
14-01-2016,14:00,41.48162,R,ugm-3
14-01-2016,15:00,58.95098,R,ugm-3
14-01-2016,16:00,66.52267,R,ugm-3
14-01-2016,17:00,67.76649,R,ugm-3
14-01-2016,18:00,66.30663,R,ugm-3
14-01-2016,19:00,67.00962,R,ugm-3
14-01-2016,20:00,67.33392,R,ugm-3
14-01-2016,21:00,65.38662,R,ugm-3
14-01-2016,22:00,68.36121,R,ugm-3
14-01-2016,23:00,67.98352,R,ugm-3
14-01-2016,24:00,68.90204,R,ugm-3
15-01-2016,01:00,70.22868,R,ugm-3
15-01-2016,02:00,63.44397,R,ugm-3
15-01-2016,03:00,63.98563,R,ugm-3
15-01-2016,04:00,63.17388,R,ugm-3
15-01-2016,05:00,62.52428,R,ugm-3
15-01-2016,06:00,61.71203,R,ugm-3
15-01-2016,07:00,59.38455,R,ugm-3
15-01-2016,08:00,58.13973,R,ugm-3
15-01-2016,09:00,56.46135,R,ugm-3
15-01-2016,10:00,55.37818,R,ugm-3
15-01-2016,11:00,56.13605,R,ugm-3
15-01-2016,12:00,58.68106,R,ugm-3
15-01-2016,13:00,59.00487,R,ugm-3
15-01-2016,14:00,59.54770,R,ugm-3
15-01-2016,15:00,61.54988,R,ugm-3
15-01-2016,16:00,54.67520,R,ugm-3
15-01-2016,17:00,48.28696,R,ugm-3
15-01-2016,18:00,44.11844,R,ugm-3
15-01-2016,19:00,38.59734,R,ugm-3
15-01-2016,20:00,38.59634,R,ugm-3
15-01-2016,21:00,35.89067,R,ugm-3
15-01-2016,22:00,31.50612,R,ugm-3
15-01-2016,23:00,33.88699,R,ugm-3
15-01-2016,24:00,36.86507,R,ugm-3
16-01-2016,01:00,37.38877,R,ugm-3
16-01-2016,02:00,36.95504,R,ugm-3
16-01-2016,03:00,41.46616,R,ugm-3
16-01-2016,04:00,44.28109,R,ugm-3
16-01-2016,05:00,48.77391,R,ugm-3
16-01-2016,06:00,52.88855,R,ugm-3
16-01-2016,07:00,55.26942,R,ugm-3
16-01-2016,08:00,55.54083,R,ugm-3
16-01-2016,09:00,56.35308,R,ugm-3
16-01-2016,10:00,54.56643,R,ugm-3
16-01-2016,11:00,56.84053,R,ugm-3
16-01-2016,12:00,59.60108,R,ugm-3
16-01-2016,13:00,63.06562,R,ugm-3
16-01-2016,14:00,65.17707,R,ugm-3
16-01-2016,15:00,66.25974,R,ugm-3
16-01-2016,16:00,60.25018,R,ugm-3
16-01-2016,17:00,49.04483,R,ugm-3
16-01-2016,18:00,42.06187,R,ugm-3
16-01-2016,19:00,37.08110,R,ugm-3
16-01-2016,20:00,32.15472,R,ugm-3
16-01-2016,21:00,32.48002,R,ugm-3
16-01-2016,22:00,27.77017,R,ugm-3
16-01-2016,23:00,25.06350,R,ugm-3
16-01-2016,24:00,23.16908,R,ugm-3
17-01-2016,01:00,24.39677,R,ugm-3
17-01-2016,02:00,18.76623,R,ugm-3
17-01-2016,03:00,14.45336,R,ugm-3
17-01-2016,04:00,13.85914,R,ugm-3
17-01-2016,05:00,16.18613,R,ugm-3
17-01-2016,06:00,21.54558,R,ugm-3
17-01-2016,07:00,25.60483,R,ugm-3
17-01-2016,08:00,25.11788,R,ugm-3
17-01-2016,09:00,29.28590,R,ugm-3
17-01-2016,10:00,44.55201,R,ugm-3
17-01-2016,11:00,49.69443,R,ugm-3
17-01-2016,12:00,57.70567,R,ugm-3
17-01-2016,13:00,75.56968,R,ugm-3
17-01-2016,14:00,77.78939,R,ugm-3
17-01-2016,15:00,77.41071,R,ugm-3
17-01-2016,16:00,71.40166,R,ugm-3
17-01-2016,17:00,68.10027,R,ugm-3
17-01-2016,18:00,67.23364,R,ugm-3
17-01-2016,19:00,66.36800,R,ugm-3
17-01-2016,20:00,65.98832,R,ugm-3
17-01-2016,21:00,67.34190,R,ugm-3
17-01-2016,22:00,65.61013,R,ugm-3
17-01-2016,23:00,59.11363,R,ugm-3
17-01-2016,24:00,57.97708,R,ugm-3
18-01-2016,01:00,60.98992,R,ugm-3
18-01-2016,02:00,58.75274,R,ugm-3
18-01-2016,03:00,63.49918,R,ugm-3
18-01-2016,04:00,64.52747,R,ugm-3
18-01-2016,05:00,63.28165,R,ugm-3
18-01-2016,06:00,62.68594,R,ugm-3
18-01-2016,07:00,62.25287,R,ugm-3
18-01-2016,08:00,60.57548,R,ugm-3
18-01-2016,09:00,58.13873,R,ugm-3
18-01-2016,10:00,55.48695,R,ugm-3
18-01-2016,11:00,57.81443,R,ugm-3
18-01-2016,12:00,61.38673,R,ugm-3
18-01-2016,13:00,63.11900,R,ugm-3
18-01-2016,14:00,63.33603,R,ugm-3
18-01-2016,15:00,61.49500,R,ugm-3
18-01-2016,16:00,58.89660,R,ugm-3
18-01-2016,17:00,55.75786,R,ugm-3
18-01-2016,18:00,46.82511,R,ugm-3
18-01-2016,19:00,40.22084,R,ugm-3
18-01-2016,20:00,37.02672,R,ugm-3
18-01-2016,21:00,39.57174,R,ugm-3
18-01-2016,22:00,40.00480,R,ugm-3
18-01-2016,23:00,42.76586,R,ugm-3
18-01-2016,24:00,40.22084,R,ugm-3
19-01-2016,01:00,36.95438,R,ugm-3
19-01-2016,02:00,32.53340,R,ugm-3
19-01-2016,03:00,27.82405,R,ugm-3
19-01-2016,04:00,21.97765,R,ugm-3
19-01-2016,05:00,22.89816,R,ugm-3
19-01-2016,06:00,28.09547,R,ugm-3
19-01-2016,07:00,29.98938,R,ugm-3
19-01-2016,08:00,19.21809,R,ugm-3
19-01-2016,09:00,19.70454,R,ugm-3
19-01-2016,10:00,27.60802,R,ugm-3
19-01-2016,11:00,30.47683,R,ugm-3
19-01-2016,12:00,31.77603,R,ugm-3
19-01-2016,13:00,27.71628,R,ugm-3
19-01-2016,14:00,22.35783,R,ugm-3
19-01-2016,15:00,18.45973,R,ugm-3
19-01-2016,16:00,10.61064,R,ugm-3
19-01-2016,17:00,3.03147,R,ugm-3
19-01-2016,18:00,1.19093,R,ugm-3
19-01-2016,19:00,0.86613,R,ugm-3
19-01-2016,20:00,0.65010,R,ugm-3
19-01-2016,21:00,0.92002,R,ugm-3
19-01-2016,22:00,0.59572,R,ugm-3
19-01-2016,23:00,0.48745,R,ugm-3
19-01-2016,24:00,0.37868,R,ugm-3
20-01-2016,01:00,0.43307,R,ugm-3
20-01-2016,02:00,0.65060,R,ugm-3
20-01-2016,03:00,0.32530,R,ugm-3
20-01-2016,04:00,0.37968,R,ugm-3
20-01-2016,05:00,0.37968,R,ugm-3
20-01-2016,06:00,0.21703,R,ugm-3
20-01-2016,07:00,0.43307,R,ugm-3
20-01-2016,08:00,0.37918,R,ugm-3
20-01-2016,09:00,1.13755,R,ugm-3
20-01-2016,10:00,1.46285,R,ugm-3
20-01-2016,11:00,3.41315,R,ugm-3
20-01-2016,12:00,5.14791,R,ugm-3
20-01-2016,13:00,13.22052,R,ugm-3
20-01-2016,14:00,25.52001,R,ugm-3
20-01-2016,15:00,20.96932,R,ugm-3
20-01-2016,16:00,21.88984,R,ugm-3
20-01-2016,17:00,11.75717,R,ugm-3
20-01-2016,18:00,15.44223,R,ugm-3
20-01-2016,19:00,11.64990,R,ugm-3
20-01-2016,20:00,8.99412,R,ugm-3
20-01-2016,21:00,5.68924,R,ugm-3
20-01-2016,22:00,4.82261,R,ugm-3
20-01-2016,23:00,2.92620,R,ugm-3
20-01-2016,24:00,0.81225,R,ugm-3
21-01-2016,01:00,0.72244,R,ugm-3
21-01-2016,02:00,0.36122,R,ugm-3
21-01-2016,03:00,4.06374,R,ugm-3
21-01-2016,04:00,1.13755,R,ugm-3
21-01-2016,05:00,6.23107,R,ugm-3
21-01-2016,06:00,8.07360,R,ugm-3
21-01-2016,07:00,7.15209,R,ugm-3
21-01-2016,08:00,10.51135,R,ugm-3
21-01-2016,09:00,20.75229,R,ugm-3
21-01-2016,10:00,29.09631,R,ugm-3
21-01-2016,11:00,38.90318,R,ugm-3
21-01-2016,12:00,32.94302,R,ugm-3
21-01-2016,13:00,37.71175,R,ugm-3
21-01-2016,14:00,46.48933,R,ugm-3
21-01-2016,15:00,47.24770,R,ugm-3
21-01-2016,16:00,46.76075,R,ugm-3
21-01-2016,17:00,47.08505,R,ugm-3
21-01-2016,18:00,50.39043,R,ugm-3
21-01-2016,19:00,50.82349,R,ugm-3
21-01-2016,20:00,46.48933,R,ugm-3
21-01-2016,21:00,49.90298,R,ugm-3
21-01-2016,22:00,52.82867,R,ugm-3
21-01-2016,23:00,48.38525,R,ugm-3
21-01-2016,24:00,43.67190,R,ugm-3
22-01-2016,01:00,57.14554,R,ugm-3
22-01-2016,02:00,51.00411,R,ugm-3
22-01-2016,03:00,55.59222,R,ugm-3
22-01-2016,04:00,55.69999,R,ugm-3
22-01-2016,05:00,61.60626,R,ugm-3
22-01-2016,06:00,60.41433,R,ugm-3
22-01-2016,07:00,60.03565,R,ugm-3
22-01-2016,08:00,55.80925,R,ugm-3
22-01-2016,09:00,53.31612,R,ugm-3
22-01-2016,10:00,52.61164,R,ugm-3
22-01-2016,11:00,51.42021,R,ugm-3
22-01-2016,12:00,50.49869,R,ugm-3
22-01-2016,13:00,46.43545,R,ugm-3
22-01-2016,14:00,41.99252,R,ugm-3
22-01-2016,15:00,37.22380,R,ugm-3
22-01-2016,16:00,37.54910,R,ugm-3
22-01-2016,17:00,35.16473,R,ugm-3
22-01-2016,18:00,29.53037,R,ugm-3
22-01-2016,19:00,20.53525,R,ugm-3
22-01-2016,20:00,15.55049,R,ugm-3
22-01-2016,21:00,30.28824,R,ugm-3
22-01-2016,22:00,39.49939,R,ugm-3
22-01-2016,23:00,45.29690,R,ugm-3
22-01-2016,24:00,44.59242,R,ugm-3
23-01-2016,01:00,44.21340,R,ugm-3
23-01-2016,02:00,38.93943,R,ugm-3
23-01-2016,03:00,40.85447,R,ugm-3
23-01-2016,04:00,42.10029,R,ugm-3
23-01-2016,05:00,42.58774,R,ugm-3
23-01-2016,06:00,45.67658,R,ugm-3
23-01-2016,07:00,45.29690,R,ugm-3
23-01-2016,08:00,43.50925,R,ugm-3
23-01-2016,09:00,42.85915,R,ugm-3
23-01-2016,10:00,43.94232,R,ugm-3
23-01-2016,11:00,44.37589,R,ugm-3
23-01-2016,12:00,49.25288,R,ugm-3
23-01-2016,13:00,51.20318,R,ugm-3
23-01-2016,14:00,53.31612,R,ugm-3
23-01-2016,15:00,41.17878,R,ugm-3
23-01-2016,16:00,33.59412,R,ugm-3
23-01-2016,17:00,30.66792,R,ugm-3
23-01-2016,18:00,41.61284,R,ugm-3
23-01-2016,19:00,47.08505,R,ugm-3
23-01-2016,20:00,59.33066,R,ugm-3
23-01-2016,21:00,62.36513,R,ugm-3
23-01-2016,22:00,57.16333,R,ugm-3
23-01-2016,23:00,50.17340,R,ugm-3
23-01-2016,24:00,48.60228,R,ugm-3
24-01-2016,01:00,48.54806,R,ugm-3
24-01-2016,02:00,50.20982,R,ugm-3
24-01-2016,03:00,49.30676,R,ugm-3
24-01-2016,04:00,46.59760,R,ugm-3
24-01-2016,05:00,42.37121,R,ugm-3
24-01-2016,06:00,38.63226,R,ugm-3
24-01-2016,07:00,36.30278,R,ugm-3
24-01-2016,08:00,32.56384,R,ugm-3
24-01-2016,09:00,28.12141,R,ugm-3
24-01-2016,10:00,27.19989,R,ugm-3
24-01-2016,11:00,26.27888,R,ugm-3
24-01-2016,12:00,25.30298,R,ugm-3
24-01-2016,13:00,25.46613,R,ugm-3
24-01-2016,14:00,26.11623,R,ugm-3
24-01-2016,15:00,28.60886,R,ugm-3
24-01-2016,16:00,23.84063,R,ugm-3
24-01-2016,17:00,18.09701,R,ugm-3
24-01-2016,18:00,15.82191,R,ugm-3
24-01-2016,19:00,15.65876,R,ugm-3
24-01-2016,20:00,16.30886,R,ugm-3
24-01-2016,21:00,17.01384,R,ugm-3
24-01-2016,22:00,19.01802,R,ugm-3
24-01-2016,23:00,18.31354,R,ugm-3
24-01-2016,24:00,22.54043,R,ugm-3
25-01-2016,01:00,27.45285,R,ugm-3
25-01-2016,02:00,27.59787,R,ugm-3
25-01-2016,03:00,23.84063,R,ugm-3
25-01-2016,04:00,23.62410,R,ugm-3
25-01-2016,05:00,19.61474,R,ugm-3
25-01-2016,06:00,22.97400,R,ugm-3
25-01-2016,07:00,32.02250,R,ugm-3
25-01-2016,08:00,20.21045,R,ugm-3
25-01-2016,09:00,23.73286,R,ugm-3
25-01-2016,10:00,32.61872,R,ugm-3
25-01-2016,11:00,37.22380,R,ugm-3
25-01-2016,12:00,41.66672,R,ugm-3
25-01-2016,13:00,39.12021,R,ugm-3
25-01-2016,14:00,38.68714,R,ugm-3
25-01-2016,15:00,37.65736,R,ugm-3
25-01-2016,16:00,36.41105,R,ugm-3
25-01-2016,17:00,35.27350,R,ugm-3
25-01-2016,18:00,42.85866,R,ugm-3
25-01-2016,19:00,52.72041,R,ugm-3
25-01-2016,20:00,66.69979,R,ugm-3
25-01-2016,21:00,71.08833,R,ugm-3
25-01-2016,22:00,74.44759,R,ugm-3
25-01-2016,23:00,67.89172,R,ugm-3
25-01-2016,24:00,63.01473,R,ugm-3
26-01-2016,01:00,59.65613,R,ugm-3
26-01-2016,02:00,56.76370,R,ugm-3
26-01-2016,03:00,55.69749,R,ugm-3
26-01-2016,04:00,49.89450,R,ugm-3
26-01-2016,05:00,46.64051,R,ugm-3
26-01-2016,06:00,47.23722,R,ugm-3
26-01-2016,07:00,49.89450,R,ugm-3
26-01-2016,08:00,60.14441,R,ugm-3
26-01-2016,09:00,58.19212,R,ugm-3
26-01-2016,10:00,61.50049,R,ugm-3
26-01-2016,11:00,64.91713,R,ugm-3
26-01-2016,12:00,66.43586,R,ugm-3
26-01-2016,13:00,67.19472,R,ugm-3
26-01-2016,14:00,67.95359,R,ugm-3
26-01-2016,15:00,67.35737,R,ugm-3
26-01-2016,16:00,66.86942,R,ugm-3
26-01-2016,17:00,65.83964,R,ugm-3
26-01-2016,18:00,65.83864,R,ugm-3
26-01-2016,19:00,66.11006,R,ugm-3
26-01-2016,20:00,67.57390,R,ugm-3
26-01-2016,21:00,68.38765,R,ugm-3
26-01-2016,22:00,69.58058,R,ugm-3
26-01-2016,23:00,68.87660,R,ugm-3
26-01-2016,24:00,68.76733,R,ugm-3
27-01-2016,01:00,68.40661,R,ugm-3
27-01-2016,02:00,70.21405,R,ugm-3
27-01-2016,03:00,70.99154,R,ugm-3
27-01-2016,04:00,72.02132,R,ugm-3
27-01-2016,05:00,72.40100,R,ugm-3
27-01-2016,06:00,71.15419,R,ugm-3
27-01-2016,07:00,69.20140,R,ugm-3
27-01-2016,08:00,69.79811,R,ugm-3
27-01-2016,09:00,69.41843,R,ugm-3
27-01-2016,10:00,68.82172,R,ugm-3
27-01-2016,11:00,65.83914,R,ugm-3
27-01-2016,12:00,65.13366,R,ugm-3
27-01-2016,13:00,65.51384,R,ugm-3
27-01-2016,14:00,62.91045,R,ugm-3
27-01-2016,15:00,59.60208,R,ugm-3
27-01-2016,16:00,60.47021,R,ugm-3
27-01-2016,17:00,61.22957,R,ugm-3
27-01-2016,18:00,61.93455,R,ugm-3
27-01-2016,19:00,70.28606,R,ugm-3
27-01-2016,20:00,65.24293,R,ugm-3
27-01-2016,21:00,61.12031,R,ugm-3
27-01-2016,22:00,60.14441,R,ugm-3
27-01-2016,23:00,62.96483,R,ugm-3
27-01-2016,24:00,66.00129,R,ugm-3
28-01-2016,01:00,67.53848,R,ugm-3
28-01-2016,02:00,68.22550,R,ugm-3
28-01-2016,03:00,65.13366,R,ugm-3
28-01-2016,04:00,66.11056,R,ugm-3
28-01-2016,05:00,58.35527,R,ugm-3
28-01-2016,06:00,55.91403,R,ugm-3
28-01-2016,07:00,56.94530,R,ugm-3
28-01-2016,08:00,56.07717,R,ugm-3
28-01-2016,09:00,53.85347,R,ugm-3
28-01-2016,10:00,55.42608,R,ugm-3
28-01-2016,11:00,58.08335,R,ugm-3
28-01-2016,12:00,60.90427,R,ugm-3
28-01-2016,13:00,65.45946,R,ugm-3
28-01-2016,14:00,63.77858,R,ugm-3
28-01-2016,15:00,60.19830,R,ugm-3
28-01-2016,16:00,59.81961,R,ugm-3
28-01-2016,17:00,54.88375,R,ugm-3
28-01-2016,18:00,50.59898,R,ugm-3
28-01-2016,19:00,53.90735,R,ugm-3
28-01-2016,20:00,56.40247,R,ugm-3
28-01-2016,21:00,59.27678,R,ugm-3
28-01-2016,22:00,60.36144,R,ugm-3
28-01-2016,23:00,63.72370,R,ugm-3
28-01-2016,24:00,68.11673,R,ugm-3
29-01-2016,01:00,67.75535,R,ugm-3
29-01-2016,02:00,70.43091,R,ugm-3
29-01-2016,03:00,71.47949,R,ugm-3
29-01-2016,04:00,72.13009,R,ugm-3
29-01-2016,05:00,73.16037,R,ugm-3
29-01-2016,06:00,73.75708,R,ugm-3
29-01-2016,07:00,74.35380,R,ugm-3
29-01-2016,08:00,73.91973,R,ugm-3
29-01-2016,09:00,72.23835,R,ugm-3
29-01-2016,10:00,72.61754,R,ugm-3
29-01-2016,11:00,75.16704,R,ugm-3
29-01-2016,12:00,74.24503,R,ugm-3
29-01-2016,13:00,73.32352,R,ugm-3
29-01-2016,14:00,73.59443,R,ugm-3
29-01-2016,15:00,72.99772,R,ugm-3
29-01-2016,16:00,68.44203,R,ugm-3
29-01-2016,17:00,64.80836,R,ugm-3
29-01-2016,18:00,63.12699,R,ugm-3
29-01-2016,19:00,63.61543,R,ugm-3
29-01-2016,20:00,61.82579,R,ugm-3
29-01-2016,21:00,64.04950,R,ugm-3
29-01-2016,22:00,68.76783,R,ugm-3
29-01-2016,23:00,70.12341,R,ugm-3
29-01-2016,24:00,69.52670,R,ugm-3
30-01-2016,01:00,71.22587,R,ugm-3
30-01-2016,02:00,71.22587,R,ugm-3
30-01-2016,03:00,70.39483,R,ugm-3
30-01-2016,04:00,70.06903,R,ugm-3
30-01-2016,05:00,80.58986,R,ugm-3